owner,sensor,date,latitude,longitude,air_temperature,qcFlag 
WAVCIS,ioos:station:WAVCIS:CSI06:1,2008-03-01T00:00:00Z,28.8667,-90.4833,17.13,11111222 
WAVCIS,ioos:station:WAVCIS:CSI06:1,2008-03-01T01:00:00Z,28.8667,-90.4833,17.66,11111222 
WAVCIS,ioos:station:WAVCIS:CSI06:1,2008-03-01T02:00:00Z,28.8667,-90.4833,17.73,11111222 
WAVCIS,ioos:station:WAVCIS:CSI06:1,2008-03-01T03:00:00Z,28.8667,-90.4833,17.65,11111222 
WAVCIS,ioos:station:WAVCIS:CSI06:1,2008-03-01T04:00:00Z,28.8667,-90.4833,17.76,11111222 
WAVCIS,ioos:station:WAVCIS:CSI06:1,2008-03-01T05:00:00Z,28.8667,-90.4833,17.95,11111222 
WAVCIS,ioos:station:WAVCIS:CSI06:1,2008-03-01T06:00:00Z,28.8667,-90.4833,18.03,11111222 
WAVCIS,ioos:station:WAVCIS:CSI06:1,2008-03-01T07:00:00Z,28.8667,-90.4833,18.08,11111222 
WAVCIS,ioos:station:WAVCIS:CSI06:1,2008-03-01T08:00:00Z,28.8667,-90.4833,18.19,11111222 
WAVCIS,ioos:station:WAVCIS:CSI06:1,2008-03-01T09:00:00Z,28.8667,-90.4833,18.2,11111222 
WAVCIS,ioos:station:WAVCIS:CSI06:1,2008-03-01T10:00:00Z,28.8667,-90.4833,18.05,11111222 
WAVCIS,ioos:station:WAVCIS:CSI06:1,2008-03-01T11:00:00Z,28.8667,-90.4833,18.25,11111222 
WAVCIS,ioos:station:WAVCIS:CSI06:1,2008-03-01T12:00:00Z,28.8667,-90.4833,18.42,11111222 
WAVCIS,ioos:station:WAVCIS:CSI06:1,2008-03-01T13:00:00Z,28.8667,-90.4833,18.61,11111222 
WAVCIS,ioos:station:WAVCIS:CSI06:1,2008-03-01T14:00:00Z,28.8667,-90.4833,18.74,11111222 
WAVCIS,ioos:station:WAVCIS:CSI06:1,2008-03-01T15:00:00Z,28.8667,-90.4833,18.96,11111222 
WAVCIS,ioos:station:WAVCIS:CSI06:1,2008-03-01T16:00:00Z,28.8667,-90.4833,18.25,11111222 
WAVCIS,ioos:station:WAVCIS:CSI06:1,2008-03-01T17:00:00Z,28.8667,-90.4833,18.32,11111222 
WAVCIS,ioos:station:WAVCIS:CSI06:1,2008-03-01T18:00:00Z,28.8667,-90.4833,18.3,11111222 
WAVCIS,ioos:station:WAVCIS:CSI06:1,2008-03-01T19:00:00Z,28.8667,-90.4833,18.36,11111222 
WAVCIS,ioos:station:WAVCIS:CSI06:1,2008-03-01T20:00:00Z,28.8667,-90.4833,18.88,11111222 
WAVCIS,ioos:station:WAVCIS:CSI06:1,2008-03-01T21:00:00Z,28.8667,-90.4833,18.91,11111222 
WAVCIS,ioos:station:WAVCIS:CSI06:1,2008-03-01T22:00:00Z,28.8667,-90.4833,18.36,11111222 
WAVCIS,ioos:station:WAVCIS:CSI06:1,2008-03-01T23:00:00Z,28.8667,-90.4833,18.04,11111222 
WAVCIS,ioos:station:WAVCIS:CSI06:1,2008-03-02T00:00:00Z,28.8667,-90.4833,17.87,11111222 
WAVCIS,ioos:station:WAVCIS:CSI06:1,2008-03-02T01:00:00Z,28.8667,-90.4833,17.81,11111222 
WAVCIS,ioos:station:WAVCIS:CSI06:1,2008-03-02T02:00:00Z,28.8667,-90.4833,17.67,11111222 
WAVCIS,ioos:station:WAVCIS:CSI06:1,2008-03-02T03:00:00Z,28.8667,-90.4833,17.39,11111222 
WAVCIS,ioos:station:WAVCIS:CSI06:1,2008-03-02T04:00:00Z,28.8667,-90.4833,17.44,11111222 
WAVCIS,ioos:station:WAVCIS:CSI06:1,2008-03-02T05:00:00Z,28.8667,-90.4833,17.73,11111222 
WAVCIS,ioos:station:WAVCIS:CSI06:1,2008-03-02T06:00:00Z,28.8667,-90.4833,18.33,11111222 
WAVCIS,ioos:station:WAVCIS:CSI06:1,2008-03-02T07:00:00Z,28.8667,-90.4833,18.23,11111222 
WAVCIS,ioos:station:WAVCIS:CSI06:1,2008-03-02T08:00:00Z,28.8667,-90.4833,18.16,11111222 
WAVCIS,ioos:station:WAVCIS:CSI06:1,2008-03-02T09:00:00Z,28.8667,-90.4833,18.25,11111222 
WAVCIS,ioos:station:WAVCIS:CSI06:1,2008-03-02T11:00:00Z,28.8667,-90.4833,18.32,11111222 
WAVCIS,ioos:station:WAVCIS:CSI06:1,2008-03-02T12:00:00Z,28.8667,-90.4833,18.33,11111222 
WAVCIS,ioos:station:WAVCIS:CSI06:1,2008-03-02T13:00:00Z,28.8667,-90.4833,18.54,11111222 
WAVCIS,ioos:station:WAVCIS:CSI06:1,2008-03-02T14:00:00Z,28.8667,-90.4833,18.87,11111222 
WAVCIS,ioos:station:WAVCIS:CSI06:1,2008-03-02T15:00:00Z,28.8667,-90.4833,18.95,11111222 
WAVCIS,ioos:station:WAVCIS:CSI06:1,2008-03-02T16:00:00Z,28.8667,-90.4833,19.16,11111222 
WAVCIS,ioos:station:WAVCIS:CSI06:1,2008-03-02T17:00:00Z,28.8667,-90.4833,19.27,11111222 
WAVCIS,ioos:station:WAVCIS:CSI06:1,2008-03-02T18:00:00Z,28.8667,-90.4833,19.32,11111222 
WAVCIS,ioos:station:WAVCIS:CSI06:1,2008-03-02T19:00:00Z,28.8667,-90.4833,19.34,11111222 
WAVCIS,ioos:station:WAVCIS:CSI06:1,2008-03-02T20:00:00Z,28.8667,-90.4833,19.39,11111222 
WAVCIS,ioos:station:WAVCIS:CSI06:1,2008-03-02T21:00:00Z,28.8667,-90.4833,19.42,11111222 
WAVCIS,ioos:station:WAVCIS:CSI06:1,2008-03-02T22:00:00Z,28.8667,-90.4833,19.41,11111222 
WAVCIS,ioos:station:WAVCIS:CSI06:1,2008-03-02T23:00:00Z,28.8667,-90.4833,19.28,11111222 
WAVCIS,ioos:station:WAVCIS:CSI06:1,2008-03-03T00:00:00Z,28.8667,-90.4833,18.98,11111222 
WAVCIS,ioos:station:WAVCIS:CSI06:1,2008-03-03T01:00:00Z,28.8667,-90.4833,19.01,11111222 
WAVCIS,ioos:station:WAVCIS:CSI06:1,2008-03-03T02:00:00Z,28.8667,-90.4833,19.19,11111222 
WAVCIS,ioos:station:WAVCIS:CSI06:1,2008-03-03T03:00:00Z,28.8667,-90.4833,19.22,11111222 
WAVCIS,ioos:station:WAVCIS:CSI06:1,2008-03-03T04:00:00Z,28.8667,-90.4833,19.26,11111222 
WAVCIS,ioos:station:WAVCIS:CSI06:1,2008-03-03T05:00:00Z,28.8667,-90.4833,19.26,11111222 
WAVCIS,ioos:station:WAVCIS:CSI06:1,2008-03-03T06:00:00Z,28.8667,-90.4833,19.3,11111222 
WAVCIS,ioos:station:WAVCIS:CSI06:1,2008-03-03T07:00:00Z,28.8667,-90.4833,19.43,11111222 
WAVCIS,ioos:station:WAVCIS:CSI06:1,2008-03-03T08:00:00Z,28.8667,-90.4833,19.58,11111222 
WAVCIS,ioos:station:WAVCIS:CSI06:1,2008-03-03T09:00:00Z,28.8667,-90.4833,19.67,11111222 
WAVCIS,ioos:station:WAVCIS:CSI06:1,2008-03-03T10:00:00Z,28.8667,-90.4833,19.53,11111222 
WAVCIS,ioos:station:WAVCIS:CSI06:1,2008-03-03T11:00:00Z,28.8667,-90.4833,19.64,11111222 
WAVCIS,ioos:station:WAVCIS:CSI06:1,2008-03-03T12:00:00Z,28.8667,-90.4833,19.72,11111222 
WAVCIS,ioos:station:WAVCIS:CSI06:1,2008-03-03T13:00:00Z,28.8667,-90.4833,19.93,11111222 
WAVCIS,ioos:station:WAVCIS:CSI06:1,2008-03-03T14:00:00Z,28.8667,-90.4833,20.65,11111222 
WAVCIS,ioos:station:WAVCIS:CSI06:1,2008-03-03T15:00:00Z,28.8667,-90.4833,20.74,11111222 
WAVCIS,ioos:station:WAVCIS:CSI06:1,2008-03-03T16:00:00Z,28.8667,-90.4833,21.18,11111222 
WAVCIS,ioos:station:WAVCIS:CSI06:1,2008-03-03T17:00:00Z,28.8667,-90.4833,21.01,11111222 
WAVCIS,ioos:station:WAVCIS:CSI06:1,2008-03-03T18:00:00Z,28.8667,-90.4833,21.12,11111222 
WAVCIS,ioos:station:WAVCIS:CSI06:1,2008-03-03T19:00:00Z,28.8667,-90.4833,21.0,11111222 
WAVCIS,ioos:station:WAVCIS:CSI06:1,2008-03-03T20:00:00Z,28.8667,-90.4833,21.04,11111222 
WAVCIS,ioos:station:WAVCIS:CSI06:1,2008-03-03T21:00:00Z,28.8667,-90.4833,21.14,11111222 
WAVCIS,ioos:station:WAVCIS:CSI06:1,2008-03-03T22:00:00Z,28.8667,-90.4833,21.14,11111222 
WAVCIS,ioos:station:WAVCIS:CSI06:1,2008-03-03T23:00:00Z,28.8667,-90.4833,21.17,11111222 
WAVCIS,ioos:station:WAVCIS:CSI06:1,2008-03-04T00:00:00Z,28.8667,-90.4833,21.02,11111222 
WAVCIS,ioos:station:WAVCIS:CSI06:1,2008-03-04T01:00:00Z,28.8667,-90.4833,20.98,11111222 
WAVCIS,ioos:station:WAVCIS:CSI06:1,2008-03-04T02:00:00Z,28.8667,-90.4833,20.99,11111222 
WAVCIS,ioos:station:WAVCIS:CSI06:1,2008-03-04T03:00:00Z,28.8667,-90.4833,21.24,11111222 
WAVCIS,ioos:station:WAVCIS:CSI06:1,2008-03-04T04:00:00Z,28.8667,-90.4833,20.99,11111222 
WAVCIS,ioos:station:WAVCIS:CSI06:1,2008-03-04T06:00:00Z,28.8667,-90.4833,15.48,11111222 
WAVCIS,ioos:station:WAVCIS:CSI06:1,2008-03-04T07:00:00Z,28.8667,-90.4833,14.5,11111222 
WAVCIS,ioos:station:WAVCIS:CSI06:1,2008-03-04T08:00:00Z,28.8667,-90.4833,13.3,11111222 
WAVCIS,ioos:station:WAVCIS:CSI06:1,2008-03-04T09:00:00Z,28.8667,-90.4833,11.72,11111222 
WAVCIS,ioos:station:WAVCIS:CSI06:1,2008-03-04T10:00:00Z,28.8667,-90.4833,11.41,11111222 
WAVCIS,ioos:station:WAVCIS:CSI06:1,2008-03-04T11:00:00Z,28.8667,-90.4833,10.44,11111222 
WAVCIS,ioos:station:WAVCIS:CSI06:1,2008-03-04T12:00:00Z,28.8667,-90.4833,9.7,11111222 
WAVCIS,ioos:station:WAVCIS:CSI06:1,2008-03-04T13:00:00Z,28.8667,-90.4833,8.93,11111222 
WAVCIS,ioos:station:WAVCIS:CSI06:1,2008-03-04T14:00:00Z,28.8667,-90.4833,8.68,11111222 
WAVCIS,ioos:station:WAVCIS:CSI06:1,2008-03-04T15:00:00Z,28.8667,-90.4833,8.48,11111222 
WAVCIS,ioos:station:WAVCIS:CSI06:1,2008-03-04T16:00:00Z,28.8667,-90.4833,8.27,11111222 
WAVCIS,ioos:station:WAVCIS:CSI06:1,2008-03-04T17:00:00Z,28.8667,-90.4833,8.29,11111222 
WAVCIS,ioos:station:WAVCIS:CSI06:1,2008-03-04T18:00:00Z,28.8667,-90.4833,8.67,11111222 
WAVCIS,ioos:station:WAVCIS:CSI06:1,2008-03-04T20:00:00Z,28.8667,-90.4833,9.29,11111222 
WAVCIS,ioos:station:WAVCIS:CSI06:1,2008-03-04T21:00:00Z,28.8667,-90.4833,9.81,11111222 
WAVCIS,ioos:station:WAVCIS:CSI06:1,2008-03-04T22:00:00Z,28.8667,-90.4833,10.24,11111222 
WAVCIS,ioos:station:WAVCIS:CSI06:1,2008-03-04T23:00:00Z,28.8667,-90.4833,10.63,11111222 
WAVCIS,ioos:station:WAVCIS:CSI06:1,2008-03-05T00:00:00Z,28.8667,-90.4833,11.04,11111222 
WAVCIS,ioos:station:WAVCIS:CSI06:1,2008-03-05T01:00:00Z,28.8667,-90.4833,11.3,11111222 
WAVCIS,ioos:station:WAVCIS:CSI06:1,2008-03-05T02:00:00Z,28.8667,-90.4833,11.41,11111222 
WAVCIS,ioos:station:WAVCIS:CSI06:1,2008-03-05T03:00:00Z,28.8667,-90.4833,11.62,11111222 
WAVCIS,ioos:station:WAVCIS:CSI06:1,2008-03-05T04:00:00Z,28.8667,-90.4833,11.63,11111222 
WAVCIS,ioos:station:WAVCIS:CSI06:1,2008-03-05T05:00:00Z,28.8667,-90.4833,11.5,11111222 
WAVCIS,ioos:station:WAVCIS:CSI06:1,2008-03-05T06:00:00Z,28.8667,-90.4833,11.54,11111222 
WAVCIS,ioos:station:WAVCIS:CSI06:1,2008-03-05T07:00:00Z,28.8667,-90.4833,11.51,11111222 
WAVCIS,ioos:station:WAVCIS:CSI06:1,2008-03-05T08:00:00Z,28.8667,-90.4833,11.01,11111222 
WAVCIS,ioos:station:WAVCIS:CSI06:1,2008-03-05T09:00:00Z,28.8667,-90.4833,10.75,11111222 
WAVCIS,ioos:station:WAVCIS:CSI06:1,2008-03-05T10:00:00Z,28.8667,-90.4833,10.92,11111222 
WAVCIS,ioos:station:WAVCIS:CSI06:1,2008-03-05T11:00:00Z,28.8667,-90.4833,11.33,11111222 
WAVCIS,ioos:station:WAVCIS:CSI06:1,2008-03-05T12:00:00Z,28.8667,-90.4833,11.41,11111222 
WAVCIS,ioos:station:WAVCIS:CSI06:1,2008-03-05T13:00:00Z,28.8667,-90.4833,12.08,11111222 
WAVCIS,ioos:station:WAVCIS:CSI06:1,2008-03-05T14:00:00Z,28.8667,-90.4833,13.32,11111222 
WAVCIS,ioos:station:WAVCIS:CSI06:1,2008-03-05T15:00:00Z,28.8667,-90.4833,13.5,11111222 
WAVCIS,ioos:station:WAVCIS:CSI06:1,2008-03-05T16:00:00Z,28.8667,-90.4833,11.67,11111222 
WAVCIS,ioos:station:WAVCIS:CSI06:1,2008-03-05T17:00:00Z,28.8667,-90.4833,11.75,11111222 
WAVCIS,ioos:station:WAVCIS:CSI06:1,2008-03-05T18:00:00Z,28.8667,-90.4833,12.06,11111222 
WAVCIS,ioos:station:WAVCIS:CSI06:1,2008-03-05T19:00:00Z,28.8667,-90.4833,12.5,11111222 
WAVCIS,ioos:station:WAVCIS:CSI06:1,2008-03-05T20:00:00Z,28.8667,-90.4833,12.39,11111222 
WAVCIS,ioos:station:WAVCIS:CSI06:1,2008-03-05T21:00:00Z,28.8667,-90.4833,12.78,11111222 
WAVCIS,ioos:station:WAVCIS:CSI06:1,2008-03-05T22:00:00Z,28.8667,-90.4833,12.82,11111222 
WAVCIS,ioos:station:WAVCIS:CSI06:1,2008-03-05T23:00:00Z,28.8667,-90.4833,12.66,11111222 
WAVCIS,ioos:station:WAVCIS:CSI06:1,2008-03-06T00:00:00Z,28.8667,-90.4833,12.34,11111222 
WAVCIS,ioos:station:WAVCIS:CSI06:1,2008-03-06T01:00:00Z,28.8667,-90.4833,12.35,11111222 
WAVCIS,ioos:station:WAVCIS:CSI06:1,2008-03-06T02:00:00Z,28.8667,-90.4833,12.56,11111222 
WAVCIS,ioos:station:WAVCIS:CSI06:1,2008-03-06T03:00:00Z,28.8667,-90.4833,12.71,11111222 
WAVCIS,ioos:station:WAVCIS:CSI06:1,2008-03-06T04:00:00Z,28.8667,-90.4833,12.94,11111222 
WAVCIS,ioos:station:WAVCIS:CSI06:1,2008-03-06T05:00:00Z,28.8667,-90.4833,13.29,11111222 
WAVCIS,ioos:station:WAVCIS:CSI06:1,2008-03-06T06:00:00Z,28.8667,-90.4833,13.45,11111222 
WAVCIS,ioos:station:WAVCIS:CSI06:1,2008-03-06T07:00:00Z,28.8667,-90.4833,13.63,11111222 
WAVCIS,ioos:station:WAVCIS:CSI06:1,2008-03-06T08:00:00Z,28.8667,-90.4833,13.72,11111222 
WAVCIS,ioos:station:WAVCIS:CSI06:1,2008-03-06T09:00:00Z,28.8667,-90.4833,13.72,11111222 
WAVCIS,ioos:station:WAVCIS:CSI06:1,2008-03-06T12:00:00Z,28.8667,-90.4833,14.09,11111222 
WAVCIS,ioos:station:WAVCIS:CSI06:1,2008-03-06T13:00:00Z,28.8667,-90.4833,14.05,11111222 
WAVCIS,ioos:station:WAVCIS:CSI06:1,2008-03-06T14:00:00Z,28.8667,-90.4833,14.27,11111222 
WAVCIS,ioos:station:WAVCIS:CSI06:1,2008-03-06T15:00:00Z,28.8667,-90.4833,14.34,11111222 
WAVCIS,ioos:station:WAVCIS:CSI06:1,2008-03-06T16:00:00Z,28.8667,-90.4833,14.41,11111222 
WAVCIS,ioos:station:WAVCIS:CSI06:1,2008-03-06T17:00:00Z,28.8667,-90.4833,14.4,11111222 
WAVCIS,ioos:station:WAVCIS:CSI06:1,2008-03-06T18:00:00Z,28.8667,-90.4833,14.44,11111222 
WAVCIS,ioos:station:WAVCIS:CSI06:1,2008-03-06T19:00:00Z,28.8667,-90.4833,14.39,11111222 
WAVCIS,ioos:station:WAVCIS:CSI06:1,2008-03-06T20:00:00Z,28.8667,-90.4833,14.58,11111222 
WAVCIS,ioos:station:WAVCIS:CSI06:1,2008-03-06T21:00:00Z,28.8667,-90.4833,14.82,11111222 
WAVCIS,ioos:station:WAVCIS:CSI06:1,2008-03-06T22:00:00Z,28.8667,-90.4833,15.45,11111222 
WAVCIS,ioos:station:WAVCIS:CSI06:1,2008-03-06T23:00:00Z,28.8667,-90.4833,15.76,11111222 
WAVCIS,ioos:station:WAVCIS:CSI06:1,2008-03-07T00:00:00Z,28.8667,-90.4833,16.17,11111222 
WAVCIS,ioos:station:WAVCIS:CSI06:1,2008-03-07T12:00:00Z,28.8667,-90.4833,14.34,11111222 
WAVCIS,ioos:station:WAVCIS:CSI06:1,2008-03-07T13:00:00Z,28.8667,-90.4833,14.08,11111222 
WAVCIS,ioos:station:WAVCIS:CSI06:1,2008-03-07T14:00:00Z,28.8667,-90.4833,13.35,11111222 
WAVCIS,ioos:station:WAVCIS:CSI06:1,2008-03-07T15:00:00Z,28.8667,-90.4833,12.35,11111222 
WAVCIS,ioos:station:WAVCIS:CSI06:1,2008-03-07T17:00:00Z,28.8667,-90.4833,11.05,11111222 
WAVCIS,ioos:station:WAVCIS:CSI06:1,2008-03-07T18:00:00Z,28.8667,-90.4833,10.86,11111222 
WAVCIS,ioos:station:WAVCIS:CSI06:1,2008-03-07T19:00:00Z,28.8667,-90.4833,11.22,11111222 
WAVCIS,ioos:station:WAVCIS:CSI06:1,2008-03-07T20:00:00Z,28.8667,-90.4833,10.94,11111222 
WAVCIS,ioos:station:WAVCIS:CSI06:1,2008-03-07T21:00:00Z,28.8667,-90.4833,11.23,11111222 
WAVCIS,ioos:station:WAVCIS:CSI06:1,2008-03-07T22:00:00Z,28.8667,-90.4833,9.85,11111222 
WAVCIS,ioos:station:WAVCIS:CSI06:1,2008-03-07T23:00:00Z,28.8667,-90.4833,9.16,11111222 
WAVCIS,ioos:station:WAVCIS:CSI06:1,2008-03-08T00:00:00Z,28.8667,-90.4833,8.15,11111222 
WAVCIS,ioos:station:WAVCIS:CSI06:1,2008-03-08T01:00:00Z,28.8667,-90.4833,7.83,11111222 
WAVCIS,ioos:station:WAVCIS:CSI06:1,2008-03-08T02:00:00Z,28.8667,-90.4833,7.21,11111222 
WAVCIS,ioos:station:WAVCIS:CSI06:1,2008-03-08T03:00:00Z,28.8667,-90.4833,6.33,11111222 
WAVCIS,ioos:station:WAVCIS:CSI06:1,2008-03-08T04:00:00Z,28.8667,-90.4833,5.533,11111222 
WAVCIS,ioos:station:WAVCIS:CSI06:1,2008-03-08T05:00:00Z,28.8667,-90.4833,4.82,11111222 
WAVCIS,ioos:station:WAVCIS:CSI06:1,2008-03-08T06:00:00Z,28.8667,-90.4833,4.842,11111222 
WAVCIS,ioos:station:WAVCIS:CSI06:1,2008-03-08T07:00:00Z,28.8667,-90.4833,4.569,11111222 
WAVCIS,ioos:station:WAVCIS:CSI06:1,2008-03-08T08:00:00Z,28.8667,-90.4833,4.844,11111222 
WAVCIS,ioos:station:WAVCIS:CSI06:1,2008-03-08T09:00:00Z,28.8667,-90.4833,5.305,11111222 
WAVCIS,ioos:station:WAVCIS:CSI06:1,2008-03-08T10:00:00Z,28.8667,-90.4833,5.428,11111222 
WAVCIS,ioos:station:WAVCIS:CSI06:1,2008-03-08T11:00:00Z,28.8667,-90.4833,5.583,11111222 
WAVCIS,ioos:station:WAVCIS:CSI06:1,2008-03-08T12:00:00Z,28.8667,-90.4833,5.492,11111222 
WAVCIS,ioos:station:WAVCIS:CSI06:1,2008-03-08T13:00:00Z,28.8667,-90.4833,5.69,11111222 
WAVCIS,ioos:station:WAVCIS:CSI06:1,2008-03-08T14:00:00Z,28.8667,-90.4833,6.31,11111222 
WAVCIS,ioos:station:WAVCIS:CSI06:1,2008-03-08T15:00:00Z,28.8667,-90.4833,7.37,11111222 
WAVCIS,ioos:station:WAVCIS:CSI06:1,2008-03-08T16:00:00Z,28.8667,-90.4833,8.16,11111222 
WAVCIS,ioos:station:WAVCIS:CSI06:1,2008-03-08T18:00:00Z,28.8667,-90.4833,7.49,11111222 
WAVCIS,ioos:station:WAVCIS:CSI06:1,2008-03-08T19:00:00Z,28.8667,-90.4833,8.05,11111222 
WAVCIS,ioos:station:WAVCIS:CSI06:1,2008-03-08T20:00:00Z,28.8667,-90.4833,8.79,11111222 
WAVCIS,ioos:station:WAVCIS:CSI06:1,2008-03-08T21:00:00Z,28.8667,-90.4833,9.28,11111222 
WAVCIS,ioos:station:WAVCIS:CSI06:1,2008-03-08T22:00:00Z,28.8667,-90.4833,10.31,11111222 
WAVCIS,ioos:station:WAVCIS:CSI06:1,2008-03-08T23:00:00Z,28.8667,-90.4833,11.1,11111222 
WAVCIS,ioos:station:WAVCIS:CSI06:1,2008-03-09T00:00:00Z,28.8667,-90.4833,11.11,11111222 
WAVCIS,ioos:station:WAVCIS:CSI06:1,2008-03-09T01:00:00Z,28.8667,-90.4833,11.16,11111222 
WAVCIS,ioos:station:WAVCIS:CSI06:1,2008-03-09T02:00:00Z,28.8667,-90.4833,11.4,11111222 
WAVCIS,ioos:station:WAVCIS:CSI06:1,2008-03-09T03:00:00Z,28.8667,-90.4833,11.99,11111222 
WAVCIS,ioos:station:WAVCIS:CSI06:1,2008-03-09T04:00:00Z,28.8667,-90.4833,12.29,11111222 
WAVCIS,ioos:station:WAVCIS:CSI06:1,2008-03-09T05:00:00Z,28.8667,-90.4833,12.81,11111222 
WAVCIS,ioos:station:WAVCIS:CSI06:1,2008-03-09T06:00:00Z,28.8667,-90.4833,13.14,11111222 
WAVCIS,ioos:station:WAVCIS:CSI06:1,2008-03-09T07:00:00Z,28.8667,-90.4833,13.23,11111222 
WAVCIS,ioos:station:WAVCIS:CSI06:1,2008-03-09T08:00:00Z,28.8667,-90.4833,13.09,11111222 
WAVCIS,ioos:station:WAVCIS:CSI06:1,2008-03-09T09:00:00Z,28.8667,-90.4833,12.97,11111222 
WAVCIS,ioos:station:WAVCIS:CSI06:1,2008-03-09T10:00:00Z,28.8667,-90.4833,13.22,11111222 
WAVCIS,ioos:station:WAVCIS:CSI06:1,2008-03-09T11:00:00Z,28.8667,-90.4833,13.22,11111222 
WAVCIS,ioos:station:WAVCIS:CSI06:1,2008-03-09T12:00:00Z,28.8667,-90.4833,13.4,11111222 
WAVCIS,ioos:station:WAVCIS:CSI06:1,2008-03-09T13:00:00Z,28.8667,-90.4833,14.65,11111222 
WAVCIS,ioos:station:WAVCIS:CSI06:1,2008-03-09T14:00:00Z,28.8667,-90.4833,14.78,11111222 
WAVCIS,ioos:station:WAVCIS:CSI06:1,2008-03-09T15:00:00Z,28.8667,-90.4833,14.54,11111222 
WAVCIS,ioos:station:WAVCIS:CSI06:1,2008-03-09T16:00:00Z,28.8667,-90.4833,14.59,11111222 
WAVCIS,ioos:station:WAVCIS:CSI06:1,2008-03-09T17:00:00Z,28.8667,-90.4833,14.56,11111222 
WAVCIS,ioos:station:WAVCIS:CSI06:1,2008-03-09T18:00:00Z,28.8667,-90.4833,14.65,11111222 
WAVCIS,ioos:station:WAVCIS:CSI06:1,2008-03-09T19:00:00Z,28.8667,-90.4833,15.07,11111222 
WAVCIS,ioos:station:WAVCIS:CSI06:1,2008-03-09T20:00:00Z,28.8667,-90.4833,15.47,11111222 
WAVCIS,ioos:station:WAVCIS:CSI06:1,2008-03-09T21:00:00Z,28.8667,-90.4833,15.68,11111222 
WAVCIS,ioos:station:WAVCIS:CSI06:1,2008-03-09T22:00:00Z,28.8667,-90.4833,15.87,11111222 
WAVCIS,ioos:station:WAVCIS:CSI06:1,2008-03-09T23:00:00Z,28.8667,-90.4833,15.97,11111222 
WAVCIS,ioos:station:WAVCIS:CSI06:1,2008-03-10T00:00:00Z,28.8667,-90.4833,15.79,11111222 
WAVCIS,ioos:station:WAVCIS:CSI06:1,2008-03-10T01:00:00Z,28.8667,-90.4833,15.79,11111222 
WAVCIS,ioos:station:WAVCIS:CSI06:1,2008-03-10T02:00:00Z,28.8667,-90.4833,15.96,11111222 
WAVCIS,ioos:station:WAVCIS:CSI06:1,2008-03-10T03:00:00Z,28.8667,-90.4833,16.12,11111222 
WAVCIS,ioos:station:WAVCIS:CSI06:1,2008-03-10T04:00:00Z,28.8667,-90.4833,16.24,11111222 
WAVCIS,ioos:station:WAVCIS:CSI06:1,2008-03-10T05:00:00Z,28.8667,-90.4833,16.53,11111222 
WAVCIS,ioos:station:WAVCIS:CSI06:1,2008-03-10T06:00:00Z,28.8667,-90.4833,16.73,11111222 
WAVCIS,ioos:station:WAVCIS:CSI06:1,2008-03-10T07:00:00Z,28.8667,-90.4833,17.24,11111222 
WAVCIS,ioos:station:WAVCIS:CSI06:1,2008-03-10T08:00:00Z,28.8667,-90.4833,17.51,11111222 
WAVCIS,ioos:station:WAVCIS:CSI06:1,2008-03-10T09:00:00Z,28.8667,-90.4833,17.57,11111222 
WAVCIS,ioos:station:WAVCIS:CSI06:1,2008-03-10T10:00:00Z,28.8667,-90.4833,17.57,11111222 
WAVCIS,ioos:station:WAVCIS:CSI06:1,2008-03-10T11:00:00Z,28.8667,-90.4833,17.43,11111222 
WAVCIS,ioos:station:WAVCIS:CSI06:1,2008-03-10T12:00:00Z,28.8667,-90.4833,17.15,11111222 
WAVCIS,ioos:station:WAVCIS:CSI06:1,2008-03-10T13:00:00Z,28.8667,-90.4833,17.66,11111222 
WAVCIS,ioos:station:WAVCIS:CSI06:1,2008-03-10T14:00:00Z,28.8667,-90.4833,17.56,11111222 
WAVCIS,ioos:station:WAVCIS:CSI06:1,2008-03-10T15:00:00Z,28.8667,-90.4833,17.63,11111222 
WAVCIS,ioos:station:WAVCIS:CSI06:1,2008-03-10T16:00:00Z,28.8667,-90.4833,17.76,11111222 
WAVCIS,ioos:station:WAVCIS:CSI06:1,2008-03-10T17:00:00Z,28.8667,-90.4833,17.78,11111222 
WAVCIS,ioos:station:WAVCIS:CSI06:1,2008-03-10T18:00:00Z,28.8667,-90.4833,17.91,11111222 
WAVCIS,ioos:station:WAVCIS:CSI06:1,2008-03-10T19:00:00Z,28.8667,-90.4833,17.92,11111222 
WAVCIS,ioos:station:WAVCIS:CSI06:1,2008-03-10T20:00:00Z,28.8667,-90.4833,17.96,11111222 
WAVCIS,ioos:station:WAVCIS:CSI06:1,2008-03-10T21:00:00Z,28.8667,-90.4833,17.91,11111222 
WAVCIS,ioos:station:WAVCIS:CSI06:1,2008-03-10T22:00:00Z,28.8667,-90.4833,18.0,11111222 
WAVCIS,ioos:station:WAVCIS:CSI06:1,2008-03-10T23:00:00Z,28.8667,-90.4833,18.07,11111222 
WAVCIS,ioos:station:WAVCIS:CSI06:1,2008-03-11T00:00:00Z,28.8667,-90.4833,17.91,11111222 
WAVCIS,ioos:station:WAVCIS:CSI06:1,2008-03-11T01:00:00Z,28.8667,-90.4833,17.85,11111222 
WAVCIS,ioos:station:WAVCIS:CSI06:1,2008-03-11T02:00:00Z,28.8667,-90.4833,17.88,11111222 
WAVCIS,ioos:station:WAVCIS:CSI06:1,2008-03-11T03:00:00Z,28.8667,-90.4833,17.63,11111222 
WAVCIS,ioos:station:WAVCIS:CSI06:1,2008-03-11T04:00:00Z,28.8667,-90.4833,17.94,11111222 
WAVCIS,ioos:station:WAVCIS:CSI06:1,2008-03-11T05:00:00Z,28.8667,-90.4833,18.13,11111222 
WAVCIS,ioos:station:WAVCIS:CSI06:1,2008-03-11T07:00:00Z,28.8667,-90.4833,16.99,11111222 
WAVCIS,ioos:station:WAVCIS:CSI06:1,2008-03-11T08:00:00Z,28.8667,-90.4833,16.72,11111222 
WAVCIS,ioos:station:WAVCIS:CSI06:1,2008-03-11T09:00:00Z,28.8667,-90.4833,16.53,11111222 
WAVCIS,ioos:station:WAVCIS:CSI06:1,2008-03-11T10:00:00Z,28.8667,-90.4833,16.06,11111222 
WAVCIS,ioos:station:WAVCIS:CSI06:1,2008-03-11T11:00:00Z,28.8667,-90.4833,16.41,11111222 
WAVCIS,ioos:station:WAVCIS:CSI06:1,2008-03-11T12:00:00Z,28.8667,-90.4833,16.87,11111222 
WAVCIS,ioos:station:WAVCIS:CSI06:1,2008-03-11T13:00:00Z,28.8667,-90.4833,16.87,11111222 
WAVCIS,ioos:station:WAVCIS:CSI06:1,2008-03-11T14:00:00Z,28.8667,-90.4833,15.82,11111222 
WAVCIS,ioos:station:WAVCIS:CSI06:1,2008-03-11T15:00:00Z,28.8667,-90.4833,15.85,11111222 
WAVCIS,ioos:station:WAVCIS:CSI06:1,2008-03-11T16:00:00Z,28.8667,-90.4833,15.14,11111222 
WAVCIS,ioos:station:WAVCIS:CSI06:1,2008-03-11T17:00:00Z,28.8667,-90.4833,15.0,11111222 
WAVCIS,ioos:station:WAVCIS:CSI06:1,2008-03-11T18:00:00Z,28.8667,-90.4833,14.96,11111222 
WAVCIS,ioos:station:WAVCIS:CSI06:1,2008-03-11T19:00:00Z,28.8667,-90.4833,15.19,11111222 
WAVCIS,ioos:station:WAVCIS:CSI06:1,2008-03-11T20:00:00Z,28.8667,-90.4833,15.89,11111222 
WAVCIS,ioos:station:WAVCIS:CSI06:1,2008-03-11T21:00:00Z,28.8667,-90.4833,16.34,11111222 
WAVCIS,ioos:station:WAVCIS:CSI06:1,2008-03-11T22:00:00Z,28.8667,-90.4833,16.01,11111222 
WAVCIS,ioos:station:WAVCIS:CSI06:1,2008-03-11T23:00:00Z,28.8667,-90.4833,16.52,11111222 
WAVCIS,ioos:station:WAVCIS:CSI06:1,2008-03-12T00:00:00Z,28.8667,-90.4833,16.21,11111222 
WAVCIS,ioos:station:WAVCIS:CSI06:1,2008-03-12T01:00:00Z,28.8667,-90.4833,16.45,11111222 
WAVCIS,ioos:station:WAVCIS:CSI06:1,2008-03-12T02:00:00Z,28.8667,-90.4833,16.11,11111222 
WAVCIS,ioos:station:WAVCIS:CSI06:1,2008-03-12T03:00:00Z,28.8667,-90.4833,16.26,11111222 
WAVCIS,ioos:station:WAVCIS:CSI06:1,2008-03-12T04:00:00Z,28.8667,-90.4833,16.12,11111222 
WAVCIS,ioos:station:WAVCIS:CSI06:1,2008-03-12T05:00:00Z,28.8667,-90.4833,15.95,11111222 
WAVCIS,ioos:station:WAVCIS:CSI06:1,2008-03-12T06:00:00Z,28.8667,-90.4833,15.93,11111222 
WAVCIS,ioos:station:WAVCIS:CSI06:1,2008-03-12T07:00:00Z,28.8667,-90.4833,15.79,11111222 
WAVCIS,ioos:station:WAVCIS:CSI06:1,2008-03-12T08:00:00Z,28.8667,-90.4833,15.22,11111222 
WAVCIS,ioos:station:WAVCIS:CSI06:1,2008-03-12T09:00:00Z,28.8667,-90.4833,14.74,11111222 
WAVCIS,ioos:station:WAVCIS:CSI06:1,2008-03-12T10:00:00Z,28.8667,-90.4833,14.57,11111222 
WAVCIS,ioos:station:WAVCIS:CSI06:1,2008-03-12T11:00:00Z,28.8667,-90.4833,14.76,11111222 
WAVCIS,ioos:station:WAVCIS:CSI06:1,2008-03-12T12:00:00Z,28.8667,-90.4833,14.68,11111222 
WAVCIS,ioos:station:WAVCIS:CSI06:1,2008-03-12T13:00:00Z,28.8667,-90.4833,14.46,11111222 
WAVCIS,ioos:station:WAVCIS:CSI06:1,2008-03-12T14:00:00Z,28.8667,-90.4833,14.74,11111222 
WAVCIS,ioos:station:WAVCIS:CSI06:1,2008-03-12T15:00:00Z,28.8667,-90.4833,14.63,11111222 
WAVCIS,ioos:station:WAVCIS:CSI06:1,2008-03-12T16:00:00Z,28.8667,-90.4833,14.88,11111222 
WAVCIS,ioos:station:WAVCIS:CSI06:1,2008-03-12T17:00:00Z,28.8667,-90.4833,15.39,11111222 
WAVCIS,ioos:station:WAVCIS:CSI06:1,2008-03-12T18:00:00Z,28.8667,-90.4833,16.02,11111222 
WAVCIS,ioos:station:WAVCIS:CSI06:1,2008-03-12T19:00:00Z,28.8667,-90.4833,16.21,11111222 
WAVCIS,ioos:station:WAVCIS:CSI06:1,2008-03-12T20:00:00Z,28.8667,-90.4833,16.73,11111222 
WAVCIS,ioos:station:WAVCIS:CSI06:1,2008-03-12T21:00:00Z,28.8667,-90.4833,18.03,11111222 
WAVCIS,ioos:station:WAVCIS:CSI06:1,2008-03-12T22:00:00Z,28.8667,-90.4833,16.85,11111222 
WAVCIS,ioos:station:WAVCIS:CSI06:1,2008-03-12T23:00:00Z,28.8667,-90.4833,16.48,11111222 